LILACSAT-2

Last updated on Mon Sep 15 2025 00:03:09 GMT+0000 (Coordinated Universal Time)

1 40908U 15049K 25257.23529132 .00009470 00000+0 23052-3 0 9992 2 40908 97.5034 280.0420 0009570 160.7389 199.4221 15.41119959553109
UTC large
Height (km)
Speed (km/s)
/
Latitude / Longitude
Inclination (degrees)
Orbital Period (minutes)
Azimuth
Elevation
Range (km)
Doppler Factor

Next 0 passes for location: London (51.5072 / 0.1276)

Sorry there are no passes over London.